Epoch,demod_status_bits,ebno,lock_status,signal_level,viterbi_ber
1665431039,,12.2,0x00c000,-39.6,
1665431040,C;S;V;F,12.7,0x00c000,-39.3,3.32e-6
1665431041,C;S;V;F,,0x00c000,-39.1,2.57e-6
1665431042,C;S;V;F,12.8,0x00c000,,1.21e-6
1665431044,C;S;V;F,13.1,0x00c000,-38.6,0.00e-0
1665431045,C;S;V;F,13.2,0x00c000,-38.6,0.00e-0
1665431046,C;S;V;F,13.0,0x00c000,-38.9,0.00e-0
1665431047,C;S;V;F,13.2,0x00c000,-38.8,
1665431048,,13.5,0x00c000,-38.6,0.00e-0
1665431049,C;S;V;F,13.6,0x00c000,-38.3,0.00e-0
1665431050,C;S;V;F,14.0,0x00c000,-38.2,0.00e-0
1665431051,C;S;V;F,,0x00c000,-38.4,0.00e-0
1665431052,C;S;V;F,13.6,0x00c000,,0.00e-0
1665431053,C;S;V;F,13.8,0x00c000,-38.2,0.00e-0
1665431054,C;S;V;F,14.0,0x00c000,-38.2,0.00e-0
1665431055,C;S;V;F,13.8,0x00c000,-38.0,0.00e-0
1665431056,C;S;V;F,14.1,0x00c000,-37.9,0.00e-0
1665431057,C;S;V;F,14.3,0x00c000,-37.9,0.00e-0
1665431058,C;S;V;F,14.4,0x00c000,-37.8,0.00e-0
1665431059,C;S;V;F,14.5,0x00c000,-37.5,0.00e-0
1665431060,C;S;V;F,14.3,0x00c000,-37.8,0.00e-0
1665431061,,14.5,0x00c000,-37.6,
1665431062,C;S;V;F,14.6,0x00c000,-37.7,0.00e-0
1665431063,C;S;V;F,14.8,0x00c000,-37.5,0.00e-0
1665431064,C;S;V;F,,0x00c000,-37.5,0.00e-0
1665431065,C;S;V;F,14.6,0x00c000,,0.00e-0
1665431066,C;S;V;F,14.8,0x00c000,-37.2,0.00e-0
1665431067,C;S;V;F,14.7,0x00c000,-37.5,0.00e-0
1665431068,C;S;V;F,14.9,0x00c000,-37.5,0.00e-0
1665431069,C;S;V;F,14.7,0x00c000,-37.2,0.00e-0
1665431070,C;S;V;F,15.0,0x00c000,-37.1,0.00e-0
1665431071,,15.0,0x00c000,-36.6,
1665431072,C;S;V;F,14.9,0x00c000,-37.0,0.00e-0
1665431073,C;S;V;F,14.9,0x00c000,-37.2,0.00e-0
1665431074,C;S;V;F,,0x00c000,-37.1,0.00e-0
1665431075,C;S;V;F,15.1,0x00c000,-37.2,0.00e-0
1665431076,C;S;V;F,15.0,0x00c000,,0.00e-0
1665431077,C;S;V;F,15.3,0x00c000,-36.7,0.00e-0
1665431078,C;S;V;F,15.1,0x00c000,-37.0,0.00e-0
1665431079,C;S;V;F,15.1,0x00c000,-37.2,0.00e-0
1665431080,C;S;V;F,15.1,0x00c000,-36.8,0.00e-0
1665431081,C;S;V;F,15.4,0x00c000,-36.7,0.00e-0
1665431082,C;S;V;F,15.5,0x00c000,-36.4,0.00e-0
1665431083,C;S;V;F,15.4,0x00c000,-36.6,0.00e-0
1665431084,C;S;V;F,15.4,0x00c000,-36.8,
1665431085,,15.3,0x00c000,-36.9,0.00e-0
1665431086,C;S;V;F,15.6,0x00c000,-36.5,0.00e-0
1665431087,C;S;V;F,15.5,0x00c000,-36.7,0.00e-0
1665431088,C;S;V;F,,0x00c000,-36.5,0.00e-0
1665431089,C;S;V;F,15.7,0x00c000,,0.00e-0
1665431090,C;S;V;F,15.8,0x00c000,-36.3,0.00e-0
1665431091,C;S;V;F,15.6,0x00c000,-36.6,0.00e-0
1665431092,C;S;V;F,15.9,0x00c000,-36.4,0.00e-0
1665431096,C;S;V;F,15.8,0x00c000,-36.4,0.00e-0
1665431097,C;S;V;F,15.7,0x00c000,-36.4,0.00e-0
1665431098,C;S;V;F,15.7,0x00c000,-36.3,0.00e-0
1665431099,C;S;V;F,15.8,0x00c000,-36.4,
1665431100,,15.7,0x00c000,-36.5,0.00e-0
1665431101,C;S;V;F,15.7,0x00c000,-36.5,0.00e-0
1665431102,C;S;V;F,15.8,0x00c000,-36.3,0.00e-0
1665431103,C;S;V;F,,0x00c000,-36.4,0.00e-0
1665431104,C;S;V;F,16.0,0x00c000,,0.00e-0
1665431106,C;S;V;F,15.8,0x00c000,-36.2,0.00e-0
1665431107,C;S;V;F,15.9,0x00c000,-36.2,0.00e-0
1665431108,C;S;V;F,16.2,0x00c000,-36.3,0.00e-0
1665431109,C;S;V;F,16.0,0x00c000,-36.1,0.00e-0
1665431110,C;S;V;F,16.2,0x00c000,-36.1,0.00e-0
1665431111,C;S;V;F,16.1,0x00c000,-36.0,
1665431112,,16.1,0x00c000,-36.1,0.00e-0
1665431113,C;S;V;F,16.1,0x00c000,-36.1,0.00e-0
1665431114,C;S;V;F,16.2,0x00c000,-35.9,0.00e-0
1665431115,C;S;V;F,,0x00c000,-36.0,0.00e-0
1665431116,C;S;V;F,16.2,0x00c000,,0.00e-0
1665431117,C;S;V;F,16.3,0x00c000,-35.9,0.00e-0
1665431118,C;S;V;F,16.4,0x00c000,-35.8,0.00e-0
1665431119,C;S;V;F,16.5,0x00c000,-35.6,0.00e-0
1665431120,C;S;V;F,16.1,0x00c000,-36.0,0.00e-0
1665431121,C;S;V;F,16.3,0x00c000,-35.9,0.00e-0
1665431122,C;S;V;F,16.3,0x00c000,-36.0,0.00e-0
1665431123,,16.3,0x00c000,-35.7,
1665431124,C;S;V;F,16.5,0x00c000,-35.9,0.00e-0
1665431125,C;S;V;F,16.3,0x00c000,-36.0,0.00e-0
1665431126,C;S;V;F,,0x00c000,,0.00e-0
1665431127,C;S;V;F,16.2,0x00c000,-35.7,0.00e-0
1665431128,C;S;V;F,16.0,0x00c000,-36.1,0.00e-0
1665431129,C;S;V;F,16.1,0x00c000,-36.2,0.00e-0
1665431130,C;S;V;F,16.0,0x00c000,-36.4,0.00e-0
1665431131,C;S;V;F,16.1,0x00c000,-36.3,
1665431132,,16.1,0x00c000,-36.3,0.00e-0
1665431133,C;S;V;F,16.1,0x00c000,-36.2,0.00e-0
1665431134,C;S;V;F,,0x00c000,-36.1,0.00e-0
1665431135,C;S;V;F,16.0,0x00c000,-36.4,0.00e-0
1665431136,C;S;V;F,15.8,0x00c000,,0.00e-0
1665431137,C;S;V;F,15.9,0x00c000,-36.3,0.00e-0
1665431138,C;S;V;F,16.0,0x00c000,-36.4,0.00e-0
1665431139,C;S;V;F,16.0,0x00c000,-36.3,0.00e-0
1665431140,C;S;V;F,16.3,0x00c000,-36.2,0.00e-0
1665431141,C;S;V;F,16.0,0x00c000,-36.4,0.00e-0
1665431142,,16.2,0x00c000,-36.1,
1665431143,C;S;V;F,16.1,0x00c000,-36.3,0.00e-0
1665431144,C;S;V;F,16.1,0x00c000,-36.1,0.00e-0
1665431145,C;S;V;F,,0x00c000,-36.2,0.00e-0
1665431146,C;S;V;F,16.0,0x00c000,,0.00e-0
1665431147,C;S;V;F,16.1,0x00c000,-36.0,0.00e-0
1665431148,C;S;V;F,16.0,0x00c000,-36.2,0.00e-0
1665431149,C;S;V;F,15.9,0x00c000,-36.3,0.00e-0
1665431150,C;S;V;F,15.9,0x00c000,-36.0,0.00e-0
1665431151,C;S;V;F,16.4,0x00c000,-36.1,0.00e-0
1665431152,C;S;V;F,16.3,0x00c000,-36.1,0.00e-0
1665431153,,16.2,0x00c000,-36.2,
1665431154,C;S;V;F,16.2,0x00c000,-35.9,0.00e-0
1665431155,C;S;V;F,,0x00c000,-36.1,0.00e-0
1665431156,C;S;V;F,16.4,0x00c000,,0.00e-0
1665431157,C;S;V;F,16.4,0x00c000,-36.3,0.00e-0
1665431158,C;S;V;F,16.2,0x00c000,-36.2,0.00e-0
1665431159,C;S;V;F,16.3,0x00c000,-36.4,
1665431160,,16.1,0x00c000,-36.2,0.00e-0
1665431161,C;S;V;F,16.0,0x00c000,-36.5,0.00e-0
1665431162,C;S;V;F,,0x00c000,-36.5,0.00e-0
1665431163,C;S;V;F,15.7,0x00c000,,0.00e-0
1665431164,C;S;V;F,15.8,0x00c000,-36.4,0.00e-0
1665431165,C;S;V;F,15.8,0x00c000,-36.4,0.00e-0
1665431166,C;S;V;F,16.2,0x00c000,-36.4,0.00e-0
1665431167,C;S;V;F,16.0,0x00c000,-36.4,0.00e-0
1665431169,,16.1,0x00c000,-36.4,
1665431170,C;S;V;F,,0x00c000,-36.3,0.00e-0
1665431171,C;S;V;F,16.2,0x00c000,,0.00e-0
1665431172,C;S;V;F,16.3,0x00c000,-36.3,0.00e-0
1665431173,C;S;V;F,16.1,0x00c000,-36.4,0.00e-0
1665431174,C;S;V;F,16.0,0x00c000,-36.4,0.00e-0
1665431175,C;S;V;F,15.9,0x00c000,-36.3,
1665431176,,16.0,0x00c000,-36.4,0.00e-0
1665431177,C;S;V;F,,0x00c000,-36.4,0.00e-0
1665431178,C;S;V;F,16.2,0x00c000,,0.00e-0
1665431179,C;S;V;F,16.4,0x00c000,-36.3,0.00e-0
1665431180,C;S;V;F,16.3,0x00c000,-36.3,0.00e-0
1665431181,C;S;V;F,16.5,0x00c000,-36.0,0.00e-0
1665431182,C;S;V;F,16.2,0x00c000,-36.0,0.00e-0
1665431183,C;S;V;F,16.5,0x00c000,-35.9,0.00e-0
1665431184,C;S;V;F,16.5,0x00c000,-35.9,0.00e-0
1665431185,C;S;V;F,16.4,0x00c000,-36.0,
1665431186,,16.7,0x00c000,-35.8,0.00e-0
1665431187,C;S;V;F,16.5,0x00c000,-35.8,0.00e-0
1665431188,C;S;V;F,,0x00c000,-35.9,0.00e-0
1665431189,C;S;V;F,16.6,0x00c000,-35.9,0.00e-0
1665431190,C;S;V;F,16.5,0x00c000,,0.00e-0
1665431191,C;S;V;F,16.8,0x00c000,-35.7,0.00e-0
1665431192,C;S;V;F,16.7,0x00c000,-35.6,0.00e-0
1665431193,C;S;V;F,16.8,0x00c000,-35.6,0.00e-0
1665431194,C;S;V;F,16.9,0x00c000,-35.4,0.00e-0
1665431195,C;S;V;F,16.8,0x00c000,-35.4,
1665431196,,17.0,0x00c000,-35.5,0.00e-0
1665431197,C;S;V;F,17.1,0x00c000,-35.3,0.00e-0
1665431198,C;S;V;F,17.1,0x00c000,-35.2,0.00e-0
1665431199,C;S;V;F,,0x00c000,-35.5,0.00e-0
1665431200,C;S;V;F,16.9,0x00c000,-35.1,0.00e-0
1665431201,C;S;V;F,17.2,0x00c000,,0.00e-0
1665431202,C;S;V;F,17.1,0x00c000,-35.1,0.00e-0
1665431203,C;S;V;F,17.2,0x00c000,-35.2,0.00e-0
1665431204,C;S;V;F,17.2,0x00c000,-35.3,0.00e-0
1665431205,C;S;V;F,17.1,0x00c000,-35.2,0.00e-0
1665431206,C;S;V;F,17.2,0x00c000,-35.2,0.00e-0
1665431207,C;S;V;F,17.3,0x00c000,-35.1,
1665431208,,17.0,0x00c000,-35.2,0.00e-0
1665431209,C;S;V;F,17.3,0x00c000,-35.1,0.00e-0
1665431210,C;S;V;F,,0x00c000,,0.00e-0
1665431211,C;S;V;F,17.3,0x00c000,-35.3,0.00e-0
1665431212,C;S;V;F,17.0,0x00c000,-35.0,0.00e-0
1665431213,C;S;V;F,17.3,0x00c000,-35.0,0.00e-0
1665431214,C;S;V;F,17.3,0x00c000,-34.9,0.00e-0
1665431215,C;S;V;F,17.3,0x00c000,-34.8,0.00e-0
1665431216,C;S;V;F,17.1,0x00c000,-34.8,0.00e-0
1665431217,C;S;V;F,17.3,0x00c000,-35.1,0.00e-0
1665431218,,17.3,0x00c000,-34.8,
1665431219,C;S;V;F,17.4,0x00c000,-34.9,0.00e-0
1665431220,C;S;V;F,17.5,0x00c000,-34.9,0.00e-0
1665431221,C;S;V;F,,0x00c000,-34.8,0.00e-0
1665431222,C;S;V;F,17.7,0x00c000,,0.00e-0
1665431223,C;S;V;F,17.6,0x00c000,-34.4,0.00e-0
1665431224,C;S;V;F,17.6,0x00c000,-34.4,0.00e-0
1665431225,C;S;V;F,17.6,0x00c000,-34.4,0.00e-0
1665431226,C;S;V;F,17.6,0x00c000,-34.7,0.00e-0
1665431227,C;S;V;F,17.6,0x00c000,-34.7,0.00e-0
1665431228,C;S;V;F,17.6,0x00c000,-34.7,0.00e-0
1665431229,C;S;V;F,17.7,0x00c000,-34.5,
1665431230,,,,,0.00e-0
1665431231,C;S;V;F,17.6,0x00c000,-34.2,
1665431232,,17.7,0x00c000,-34.4,0.00e-0
1665431233,C;S;V;F,17.8,0x00c000,-34.2,0.00e-0
1665431234,C;S;V;F,17.9,0x00c000,-34.4,0.00e-0
1665431235,C;S;V;F,,0x00c000,-34.3,0.00e-0
1665431236,C;S;V;F,18.0,0x00c000,-34.2,0.00e-0
1665431237,C;S;V;F,17.9,0x00c000,,0.00e-0
1665431238,C;S;V;F,17.9,0x00c000,-34.1,0.00e-0
1665431239,C;S;V;F,17.9,0x00c000,-34.2,0.00e-0
1665431240,C;S;V;F,18.1,0x00c000,-34.3,0.00e-0
1665431241,C;S;V;F,18.1,0x00c000,-34.4,0.00e-0
1665431242,C;S;V;F,17.6,0x00c000,-34.4,0.00e-0
1665431243,C;S;V;F,17.8,0x00c000,-34.4,0.00e-0
1665431244,,17.9,0x00c000,-34.4,
1665431245,C;S;V;F,17.7,0x00c000,-34.4,0.00e-0
1665431246,C;S;V;F,,0x00c000,-34.4,0.00e-0
1665431247,C;S;V;F,17.8,0x00c000,-34.5,0.00e-0
1665431248,C;S;V;F,17.9,0x00c000,,0.00e-0
1665431249,C;S;V;F,17.6,0x00c000,-34.6,0.00e-0
1665431250,C;S;V;F,17.9,0x00c000,-34.4,0.00e-0
1665431251,C;S;V;F,17.8,0x00c000,-34.4,0.00e-0
1665431252,C;S;V;F,17.6,0x00c000,-34.4,0.00e-0
1665431253,,17.7,0x00c000,-34.4,
1665431254,C;S;V;F,17.8,0x00c000,-34.3,0.00e-0
1665431255,C;S;V;F,17.7,0x00c000,-34.4,0.00e-0
1665431256,C;S;V;F,17.7,0x00c000,-34.5,0.00e-0
1665431257,C;S;V;F,,0x00c000,-34.4,0.00e-0
1665431258,C;S;V;F,17.9,0x00c000,,0.00e-0
1665431259,C;S;V;F,18.0,0x00c000,-34.3,0.00e-0
1665431260,C;S;V;F,18.0,0x00c000,-34.2,0.00e-0
1665431261,C;S;V;F,18.1,0x00c000,-34.2,0.00e-0
1665431262,C;S;V;F,18.1,0x00c000,-34.0,0.00e-0
1665431263,C;S;V;F,18.2,0x00c000,-34.0,0.00e-0
1665431264,C;S;V;F,18.0,0x00c000,-34.0,0.00e-0
1665431265,C;S;V;F,17.9,0x00c000,-34.1,
1665431266,C;S;V;F,17.9,0x00c000,-34.2,0.00e-0
1665431267,,17.9,0x00c000,-34.3,0.00e-0
1665431268,C;S;V;F,17.7,0x00c000,-34.5,0.00e-0
1665431269,C;S;V;F,,0x00c000,-34.6,0.00e-0
1665431270,C;S;V;F,17.9,0x00c000,,0.00e-0
1665431271,C;S;V;F,17.5,0x00c000,-34.4,0.00e-0
1665431272,C;S;V;F,17.3,0x00c000,-34.6,0.00e-0
1665431273,C;S;V;F,17.4,0x00c000,-34.7,0.00e-0
1665431274,C;S;V;F,17.5,0x00c000,-34.9,0.00e-0
1665431275,C;S;V;F,17.6,0x00c000,-34.9,0.00e-0
1665431276,C;S;V;F,17.2,0x00c000,-35.2,0.00e-0
1665431277,C;S;V;F,17.0,0x00c000,-35.4,0.00e-0
1665431278,,17.1,0x00c000,-35.5,
1665431279,C;S;V;F,17.0,0x00c000,-35.4,0.00e-0
1665431280,C;S;V;F,17.0,0x00c000,-35.5,0.00e-0
1665431281,C;S;V;F,,0x00c000,,0.00e-0
1665431282,C;S;V;F,17.1,0x00c000,-35.3,0.00e-0
1665431283,C;S;V;F,17.4,0x00c000,-35.2,0.00e-0
1665431284,C;S;V;F,17.5,0x00c000,-34.9,0.00e-0
1665431285,C;S;V;F,17.3,0x00c000,-34.8,0.00e-0
1665431286,C;S;V;F,17.4,0x00c000,-34.8,0.00e-0
1665431287,C;S;V;F,17.5,0x00c000,-34.8,0.00e-0
1665431288,,17.2,0x00c000,-35.2,
1665431289,C;S;V;F,17.3,0x00c000,-35.4,0.00e-0
1665431290,C;S;V;F,,0x00c000,-35.3,0.00e-0
1665431291,C;S;V;F,17.1,0x00c000,,0.00e-0
1665431292,C;S;V;F,17.3,0x00c000,-35.4,0.00e-0
1665431293,C;S;V;F,17.1,0x00c000,-35.5,0.00e-0
1665431295,C;S;V;F,17.1,0x00c000,-35.5,0.00e-0
1665431296,,17.1,0x00c000,-35.6,
1665431297,C;S;V;F,17.1,0x00c000,-35.8,0.00e-0
1665431298,C;S;V;F,,0x00c000,-36.0,0.00e-0
1665431299,C;S;V;F,16.9,0x00c000,-36.0,0.00e-0
1665431300,C;S;V;F,16.7,0x00c000,,0.00e-0
1665431301,C;S;V;F,16.6,0x00c000,-35.9,0.00e-0
1665431302,C;S;V;F,16.4,0x00c000,-36.0,0.00e-0
1665431303,C;S;V;F,16.7,0x00c000,-36.3,0.00e-0
1665431304,C;S;V;F,16.3,0x00c000,-36.4,0.00e-0
1665431305,C;S;V;F,16.1,0x00c000,-36.4,0.00e-0
1665431306,C;S;V;F,16.4,0x00c000,-36.4,
1665431307,C;S;V;F,16.2,0x00c000,-36.4,0.00e-0
1665431308,,16.3,0x00c000,-36.5,0.00e-0
1665431309,C;S;V;F,16.0,0x00c000,-36.5,0.00e-0
1665431310,C;S;V;F,16.0,0x00c000,-36.8,0.00e-0
1665431311,C;S;V;F,,0x00c000,-37.0,0.00e-0
1665431312,C;S;V;F,16.0,0x00c000,,0.00e-0
1665431313,C;S;V;F,15.6,0x00c000,-37.2,0.00e-0
1665431314,C;S;V;F,15.4,0x00c000,-37.3,0.00e-0
1665431315,C;S;V;F,15.5,0x00c000,-37.6,0.00e-0
1665431316,C;S;V;F,15.3,0x00c000,-37.6,0.00e-0
1665431317,C;S;V;F,15.3,0x00c000,-37.9,0.00e-0
1665431318,C;S;V;F,15.2,0x00c000,-37.9,0.00e-0
1665431319,C;S;V;F,15.0,0x00c000,-37.9,0.00e-0
1665431320,C;S;V;F,14.7,0x00c000,-38.0,
1665431321,,14.7,0x00c000,-38.1,0.00e-0
1665431322,C;S;V;F,14.6,0x00c000,-38.4,0.00e-0
1665431323,C;S;V;F,,0x00c000,-38.6,0.00e-0
1665431324,C;S;V;F,14.5,0x00c000,-38.7,0.00e-0
1665431325,C;S;V;F,14.5,0x00c000,,0.00e-0
1665431326,C;S;V;F,14.1,0x00c000,-38.7,0.00e-0
1665431327,C;S;V;F,14.4,0x00c000,-38.5,0.00e-0
1665431328,C;S;V;F,14.6,0x00c000,-38.5,0.00e-0
1665431329,C;S;V;F,15.0,0x00c000,-38.2,0.00e-0
1665431330,C;S;V;F,14.9,0x00c000,-38.2,0.00e-0
1665431331,C;S;V;F,14.7,0x00c000,-38.3,0.00e-0
1665431332,C;S;V;F,14.8,0x00c000,-38.0,0.00e-0
1665431333,C;S;V;F,14.8,0x00c000,-38.2,
1665431334,,14.8,0x00c000,-38.3,0.00e-0
1665431335,C;S;V;F,14.9,0x00c000,-38.4,0.00e-0
1665431336,C;S;V;F,,0x00c000,-38.4,0.00e-0
1665431337,C;S;V;F,14.4,0x00c000,,0.00e-0
1665431338,C;S;V;F,14.6,0x00c000,-38.7,0.00e-0
1665431339,C;S;V;F,14.3,0x00c000,-38.6,0.00e-0
1665431340,C;S;V;F,14.4,0x00c000,-38.7,0.00e-0
1665431341,C;S;V;F,14.2,0x00c000,-38.7,0.00e-0
1665431342,C;S;V;F,14.4,0x00c000,-38.5,0.00e-0
1665431343,C;S;V;F,14.6,0x00c000,-38.4,0.00e-0
1665431344,C;S;V;F,14.6,0x00c000,-38.0,0.00e-0
1665431345,C;S;V;F,14.8,0x00c000,-37.9,
1665431346,,15.5,0x00c000,-37.8,0.00e-0
1665431347,C;S;V;F,15.6,0x00c000,-37.5,0.00e-0
1665431348,C;S;V;F,,0x00c000,-37.2,0.00e-0
1665431349,C;S;V;F,15.9,0x00c000,,0.00e-0
1665431350,C;S;V;F,15.9,0x00c000,-37.0,0.00e-0
1665431351,C;S;V;F,16.0,0x00c000,-36.8,0.00e-0
1665431352,C;S;V;F,15.9,0x00c000,-37.0,0.00e-0
1665431353,C;S;V;F,15.8,0x00c000,-37.2,0.00e-0
1665431354,C;S;V;F,15.5,0x00c000,-37.5,0.00e-0
1665431355,C;S;V;F,15.2,0x00c000,-37.7,0.00e-0
1665431358,C;S;V;F,15.1,0x00c000,-37.8,0.00e-0
1665431359,C;S;V;F,15.0,0x00c000,-37.9,0.00e-0
1665431360,C;S;V;F,15.3,0x00c000,-37.8,0.00e-0
1665431361,C;S;V;F,15.4,0x00c000,-37.6,0.00e-0
1665431362,C;S;V;F,15.2,0x00c000,-37.9,0.00e-0
1665431363,,15.4,0x00c000,-37.5,
1665431364,C;S;V;F,15.2,0x00c000,-37.6,0.00e-0
1665431365,C;S;V;F,,0x00c000,-37.2,0.00e-0
1665431366,C;S;V;F,15.4,0x00c000,-37.4,0.00e-0
1665431367,C;S;V;F,15.8,0x00c000,,0.00e-0
1665431368,C;S;V;F,15.5,0x00c000,-37.1,0.00e-0
1665431369,C;S;V;F,15.8,0x00c000,-37.1,0.00e-0
1665431370,C;S;V;F,15.9,0x00c000,-36.9,0.00e-0
1665431371,C;S;V;F,15.9,0x00c000,-36.7,0.00e-0
1665431372,C;S;V;F,16.3,0x00c000,-36.4,0.00e-0
1665431373,C;S;V;F,16.4,0x00c000,-36.4,
1665431374,,16.4,0x00c000,-36.3,0.00e-0
1665431375,C;S;V;F,16.4,0x00c000,-36.3,0.00e-0
1665431376,C;S;V;F,16.5,0x00c000,-36.3,0.00e-0
1665431377,C;S;V;F,,0x00c000,-36.4,0.00e-0
1665431378,C;S;V;F,16.6,0x00c000,,0.00e-0
1665431379,C;S;V;F,16.5,0x00c000,-36.4,0.00e-0
1665431380,C;S;V;F,16.4,0x00c000,-36.4,0.00e-0
1665431381,C;S;V;F,16.6,0x00c000,-36.2,0.00e-0
1665431382,C;S;V;F,16.8,0x00c000,-35.8,0.00e-0
1665431383,C;S;V;F,17.0,0x00c000,-35.4,
1665431384,,16.9,0x00c000,-35.4,0.00e-0
1665431385,C;S;V;F,17.2,0x00c000,-35.6,0.00e-0
1665431386,C;S;V;F,,0x00c000,-35.9,0.00e-0
1665431387,C;S;V;F,16.9,0x00c000,-36.2,0.00e-0
1665431388,C;S;V;F,16.7,0x00c000,,0.00e-0
1665431389,C;S;V;F,16.3,0x00c000,-36.5,0.00e-0
1665431390,C;S;V;F,16.3,0x00c000,-36.3,0.00e-0
1665431391,C;S;V;F,16.6,0x00c000,-36.3,0.00e-0
1665431392,C;S;V;F,16.4,0x00c000,-36.3,0.00e-0
1665431393,C;S;V;F,16.7,0x00c000,-36.0,0.00e-0
1665431394,C;S;V;F,16.7,0x00c000,-36.2,
1665431395,,,,,0.00e-0
1665431398,,15.6,0x00c000,-37.4,
1665431399,C;S;V;F,15.4,0x00c000,-37.5,0.00e-0
1665431400,C;S;V;F,,0x00c000,-37.4,0.00e-0
1665431401,C;S;V;F,15.5,0x00c000,,0.00e-0
1665431402,C;S;V;F,15.7,0x00c000,-37.0,0.00e-0
1665431403,C;S;V;F,15.8,0x00c000,-36.9,0.00e-0
1665431404,C;S;V;F,16.2,0x00c000,-36.7,0.00e-0
1665431405,C;S;V;F,16.4,0x00c000,-36.4,0.00e-0
1665431406,C;S;V;F,16.6,0x00c000,-36.2,0.00e-0
1665431407,C;S;V;F,16.8,0x00c000,-36.2,0.00e-0
1665431408,,16.6,0x00c000,-36.4,
1665431409,C;S;V;F,16.3,0x00c000,-36.5,0.00e-0
1665431410,C;S;V;F,16.2,0x00c000,-36.9,0.00e-0
1665431411,C;S;V;F,,0x00c000,-36.7,0.00e-0
1665431412,C;S;V;F,16.2,0x00c000,-36.5,0.00e-0
1665431413,C;S;V;F,16.0,0x00c000,,0.00e-0
1665431414,C;S;V;F,16.2,0x00c000,-36.4,0.00e-0
1665431415,C;S;V;F,16.6,0x00c000,-36.4,0.00e-0
1665431416,C;S;V;F,16.8,0x00c000,-36.0,0.00e-0
1665431417,C;S;V;F,16.6,0x00c000,-36.0,0.00e-0
1665431418,C;S;V;F,16.4,0x00c000,-36.2,0.00e-0
1665431420,,16.4,0x00c000,-36.4,
1665431421,C;S;V;F,,0x00c000,,0.00e-0
1665431422,C;S;V;F,16.6,0x00c000,-36.3,0.00e-0
1665431423,C;S;V;F,16.8,0x00c000,-36.0,0.00e-0
1665431424,C;S;V;F,16.6,0x00c000,-36.1,0.00e-0
1665431425,C;S;V;F,16.8,0x00c000,-36.0,0.00e-0
1665431426,C;S;V;F,16.8,0x00c000,-35.9,
1665431427,,17.0,0x00c000,-35.6,0.00e-0
1665431428,C;S;V;F,17.0,0x00c000,-35.6,0.00e-0
1665431429,C;S;V;F,17.2,0x00c000,-35.4,0.00e-0
1665431430,C;S;V;F,,0x00c000,-35.6,0.00e-0
1665431431,C;S;V;F,16.9,0x00c000,,0.00e-0
1665431432,C;S;V;F,17.2,0x00c000,-35.3,0.00e-0
1665431433,C;S;V;F,17.2,0x00c000,-35.2,0.00e-0
1665431434,C;S;V;F,17.3,0x00c000,-34.8,0.00e-0
1665431435,C;S;V;F,17.7,0x00c000,-34.7,0.00e-0
1665431436,C;S;V;F,17.6,0x00c000,-34.7,0.00e-0
1665431437,C;S;V;F,17.6,0x00c000,-34.8,0.00e-0
1665431438,C;S;V;F,17.5,0x00c000,-34.8,
1665431439,,17.7,0x00c000,-34.7,0.00e-0
1665431440,C;S;V;F,17.8,0x00c000,-34.7,0.00e-0
1665431441,C;S;V;F,,0x00c000,-34.6,0.00e-0
1665431442,C;S;V;F,17.6,0x00c000,,0.00e-0
1665431443,C;S;V;F,17.7,0x00c000,-34.7,0.00e-0
1665431444,C;S;V;F,17.7,0x00c000,-34.7,0.00e-0
1665431445,C;S;V;F,17.5,0x00c000,-34.8,0.00e-0
1665431446,C;S;V;F,17.8,0x00c000,-34.7,0.00e-0
1665431447,C;S;V;F,17.8,0x00c000,-34.6,0.00e-0
1665431448,C;S;V;F,17.8,0x00c000,-34.3,0.00e-0
1665431449,C;S;V;F,18.0,0x00c000,-34.1,0.00e-0
1665431450,,18.4,0x00c000,-34.0,
1665431451,C;S;V;F,18.3,0x00c000,-33.9,0.00e-0
1665431452,C;S;V;F,18.2,0x00c000,-34.2,0.00e-0
1665431453,C;S;V;F,17.9,0x00c000,-34.6,0.00e-0
1665431454,C;S;V;F,,0x00c000,-34.7,0.00e-0
1665431455,C;S;V;F,17.5,0x00c000,,0.00e-0
1665431456,C;S;V;F,17.6,0x00c000,-34.8,0.00e-0
1665431457,C;S;V;F,17.6,0x00c000,-34.6,0.00e-0
1665431458,C;S;V;F,17.8,0x00c000,-34.4,0.00e-0
1665431459,C;S;V;F,17.9,0x00c000,-34.3,0.00e-0
1665431460,C;S;V;F,17.9,0x00c000,-34.0,0.00e-0
1665431461,C;S;V;F,18.1,0x00c000,-34.0,0.00e-0
1665431462,C;S;V;F,18.1,0x00c000,-34.3,
1665431463,,17.9,0x00c000,-34.3,0.00e-0
1665431464,C;S;V;F,17.9,0x00c000,-34.6,0.00e-0
1665431465,C;S;V;F,,0x00c000,-34.8,0.00e-0
1665431466,C;S;V;F,17.7,0x00c000,,0.00e-0
1665431467,C;S;V;F,17.3,0x00c000,-34.9,0.00e-0
1665431468,C;S;V;F,17.2,0x00c000,-35.1,0.00e-0
1665431469,C;S;V;F,17.0,0x00c000,-35.5,0.00e-0
1665431470,C;S;V;F,16.8,0x00c000,-35.8,
1665431471,,16.6,0x00c000,-35.9,0.00e-0
1665431472,C;S;V;F,16.8,0x00c000,-35.6,0.00e-0
1665431473,C;S;V;F,,0x00c000,-35.5,0.00e-0
1665431474,C;S;V;F,17.0,0x00c000,-35.2,0.00e-0
1665431475,C;S;V;F,17.2,0x00c000,,0.00e-0
1665431476,C;S;V;F,17.1,0x00c000,-35.2,0.00e-0
1665431477,C;S;V;F,17.3,0x00c000,-35.3,0.00e-0
1665431478,C;S;V;F,17.0,0x00c000,-35.5,0.00e-0
1665431479,C;S;V;F,17.0,0x00c000,-35.5,0.00e-0
1665431480,C;S;V;F,17.2,0x00c000,-35.2,0.00e-0
1665431482,C;S;V;F,17.4,0x00c000,-35.3,
1665431483,,17.3,0x00c000,-35.3,0.00e-0
1665431484,C;S;V;F,,0x00c000,-35.3,0.00e-0
1665431485,C;S;V;F,17.1,0x00c000,,0.00e-0
1665431486,C;S;V;F,17.3,0x00c000,-35.2,0.00e-0
1665431487,C;S;V;F,17.4,0x00c000,-35.1,0.00e-0
1665431488,C;S;V;F,17.2,0x00c000,-35.2,0.00e-0
1665431489,C;S;V;F,17.4,0x00c000,-35.3,0.00e-0
1665431490,C;S;V;F,16.9,0x00c000,-35.4,0.00e-0
1665431491,C;S;V;F,17.1,0x00c000,-35.5,0.00e-0
1665431492,C;S;V;F,16.9,0x00c000,-35.6,
1665431493,,17.2,0x00c000,-35.6,0.00e-0
1665431494,C;S;V;F,17.0,0x00c000,-35.4,0.00e-0
1665431495,C;S;V;F,,0x00c000,-35.2,0.00e-0
1665431496,C;S;V;F,17.3,0x00c000,,0.00e-0
1665431497,C;S;V;F,17.3,0x00c000,-35.1,0.00e-0
1665431498,C;S;V;F,17.1,0x00c000,-35.3,0.00e-0
1665431499,C;S;V;F,17.1,0x00c000,-35.3,0.00e-0
1665431500,C;S;V;F,17.0,0x00c000,-35.6,0.00e-0
1665431501,C;S;V;F,16.7,0x00c000,-35.6,0.00e-0
1665431502,C;S;V;F,17.1,0x00c000,-35.6,0.00e-0
1665431503,C;S;V;F,17.2,0x00c000,-35.2,
1665431504,,17.2,0x00c000,-35.2,0.00e-0
1665431505,C;S;V;F,17.4,0x00c000,-34.9,0.00e-0
1665431506,C;S;V;F,17.3,0x00c000,-35.2,0.00e-0
1665431507,C;S;V;F,,0x00c000,-35.5,0.00e-0
1665431508,C;S;V;F,16.9,0x00c000,-35.6,0.00e-0
1665431509,C;S;V;F,17.0,0x00c000,,0.00e-0
1665431510,C;S;V;F,16.7,0x00c000,-35.6,0.00e-0
1665431511,C;S;V;F,16.8,0x00c000,-35.7,0.00e-0
1665431512,C;S;V;F,16.6,0x00c000,-35.9,0.00e-0
1665431513,C;S;V;F,16.8,0x00c000,-35.8,0.00e-0
1665431514,C;S;V;F,16.7,0x00c000,-35.8,0.00e-0
1665431515,C;S;V;F,16.3,0x00c000,-36.4,0.00e-0
1665431516,,16.0,0x00c000,-36.8,
1665431517,C;S;V;F,15.5,0x00c000,-37.2,0.00e-0
1665431518,C;S;V;F,15.3,0x00c000,-37.6,0.00e-0
1665431519,C;S;V;F,,0x00c000,-37.2,0.00e-0
1665431520,C;S;V;F,15.6,0x00c000,-36.5,0.00e-0
1665431521,C;S;V;F,15.7,0x00c000,,0.00e-0
1665431522,C;S;V;F,16.1,0x00c000,-36.4,0.00e-0
1665431523,C;S;V;F,16.6,0x00c000,-36.2,0.00e-0
1665431524,C;S;V;F,16.5,0x00c000,-36.1,0.00e-0
1665431525,C;S;V;F,16.2,0x00c000,-36.4,0.00e-0
1665431526,C;S;V;F,15.9,0x00c000,-37.0,0.00e-0
1665431527,C;S;V;F,15.5,0x00c000,-37.1,0.00e-0
1665431528,,15.5,0x00c000,-37.0,
1665431529,C;S;V;F,15.8,0x00c000,-36.8,0.00e-0
1665431530,C;S;V;F,,0x00c000,-36.3,0.00e-0
1665431531,C;S;V;F,16.4,0x00c000,-35.9,0.00e-0
1665431532,C;S;V;F,16.6,0x00c000,,0.00e-0
1665431533,C;S;V;F,16.8,0x00c000,-35.6,0.00e-0
1665431534,C;S;V;F,16.6,0x00c000,-35.8,0.00e-0
1665431535,C;S;V;F,16.6,0x00c000,-36.1,0.00e-0
1665431536,C;S;V;F,16.1,0x00c000,-36.4,0.00e-0
1665431537,C;S;V;F,15.9,0x00c000,-36.7,0.00e-0
1665431538,C;S;V;F,16.0,0x00c000,-36.8,0.00e-0
1665431539,,16.0,0x00c000,-36.5,
1665431540,C;S;V;F,16.4,0x00c000,-36.3,0.00e-0
1665431541,C;S;V;F,,0x00c000,-36.1,0.00e-0
1665431542,C;S;V;F,16.6,0x00c000,-36.2,0.00e-0
1665431543,C;S;V;F,16.3,0x00c000,,0.00e-0
1665431544,C;S;V;F,16.0,0x00c000,-36.7,0.00e-0
1665431546,C;S;V;F,15.7,0x00c000,-37.2,0.00e-0
1665431547,C;S;V;F,15.3,0x00c000,-37.4,0.00e-0
1665431548,C;S;V;F,15.8,0x00c000,-36.8,
1665431549,,16.2,0x00c000,-36.5,0.00e-0
1665431550,C;S;V;F,16.5,0x00c000,-35.8,0.00e-0
1665431551,C;S;V;F,,0x00c000,-35.4,0.00e-0
1665431552,C;S;V;F,16.9,0x00c000,-35.6,0.00e-0
1665431553,C;S;V;F,16.8,0x00c000,,0.00e-0
1665431554,C;S;V;F,16.7,0x00c000,-35.7,0.00e-0
1665431555,C;S;V;F,16.2,0x00c000,-36.4,0.00e-0
1665431556,C;S;V;F,15.6,0x00c000,-36.7,0.00e-0
1665431557,C;S;V;F,15.1,0x00c000,-37.6,0.00e-0
1665431558,,15.1,0x00c000,-37.9,
1665431559,C;S;V;F,14.9,0x00c000,-37.8,0.00e-0
1665431560,C;S;V;F,15.1,0x00c000,-37.6,0.00e-0
1665431561,C;S;V;F,,0x00c000,-37.0,0.00e-0
1665431562,C;S;V;F,15.4,0x00c000,,0.00e-0
1665431563,C;S;V;F,15.8,0x00c000,-36.4,0.00e-0
1665431564,C;S;V;F,16.0,0x00c000,-36.4,0.00e-0
1665431565,C;S;V;F,16.3,0x00c000,-36.3,0.00e-0
1665431566,C;S;V;F,16.2,0x00c000,-36.4,0.00e-0
1665431567,C;S;V;F,16.1,0x00c000,-36.4,0.00e-0
1665431568,C;S;V;F,15.9,0x00c000,-36.5,
1665431569,,15.9,0x00c000,-36.4,0.00e-0
1665431570,C;S;V;F,16.3,0x00c000,-36.4,0.00e-0
1665431571,C;S;V;F,,0x00c000,-36.4,0.00e-0
1665431572,C;S;V;F,16.1,0x00c000,-36.0,0.00e-0
1665431573,C;S;V;F,16.2,0x00c000,,0.00e-0
1665431574,C;S;V;F,16.4,0x00c000,-36.0,0.00e-0
1665431575,C;S;V;F,16.5,0x00c000,-35.9,0.00e-0
1665431576,C;S;V;F,16.5,0x00c000,-36.2,0.00e-0
1665431577,C;S;V;F,16.0,0x00c000,-36.4,0.00e-0
1665431578,C;S;V;F,16.2,0x00c000,-36.3,0.00e-0
1665431579,C;S;V;F,16.0,0x00c000,-36.7,0.00e-0
1665431580,,15.8,0x00c000,-36.8,
1665431581,C;S;V;F,15.6,0x00c000,-36.8,0.00e-0
1665431582,C;S;V;F,15.5,0x00c000,-36.9,0.00e-0
1665431583,C;S;V;F,15.6,0x00c000,-36.9,0.00e-0
1665431584,C;S;V;F,,0x00c000,-36.8,0.00e-0
1665431585,C;S;V;F,16.0,0x00c000,,0.00e-0
1665431586,C;S;V;F,15.7,0x00c000,-36.7,0.00e-0
1665431587,C;S;V;F,16.2,0x00c000,-36.4,0.00e-0